Showing default

CENTAURI-8, 62714

Orbit data source: Space-Track

CENTAURI-8, 62714 is a payload satellite owned by Fleet Space (AU) in SSO that was launched on Tue, 14 Jan 2025 UTC via an FALCON 9 launch vehicle from the Air Force Western Test Range (AFWTR). Payload-class satellites include a variety of spacecraft equipped with specific instruments for various scientific and technological missions. These include communications satellites like Starlink; space stations such as the ISS; scientific satellites like the Hubble; Earth observation satellites from companies like Planet Labs, Umbra, and HawkEye 360; GPS; miniature CubeSats for education and research; and military/defense satellites.

Loading next visibility...
Identifier
62714, 2025-009DK
Orbit
SSO
Country
Flag of AUAU / AUS
Related business
Manufacturer
Terran Orbital
Mission
Operational Commercial Communications
Bus & Motor
CUBESAT 12U, Unknown motor
Mass
~25 kg wet, ~25 kg dry
Launch date (UTC)
2025-01-14 (1 year ago)
Launch vehicle
FALCON 9
Launch site
Air Force Western Test Range (AFWTR)
Object type
Payload
Rocket body
Debris
Shape & HBR
Box + 2 Pan, 0.5 m
Radar Cross Section
0.222 m², Medium (>0.1 m² and < 1m²)

Expand to show TLE details & history
Last TLE update: 17 hours ago

TLE from 17 hours ago
0 CENTAURI-8
1 62714U 25009DK  26074.20647420  .00004269  00000-0  37327-3 0  9996
2 62714  97.7084 155.5938 0002694 103.0184 257.1339 14.97275858 63411
Epoch: 2026-03-15T04:57Z
TLE epoch observation values (Epoch: 2026-03-15T04:57:19.370Z)
Latitude
-0.00003°
Longitude
-91.55353°
Altitude
578.786 km
Speed
7.571 km/s
True Right ascension
10h 22m 22s
True Declination
0° 00' 00"
Sunlit
Object was in full shadow at epoch
Visualization orbit readout
Latitude
Unknown
Longitude
Unknown
Altitude
Unknown
Speed
Unknown
Apparent Right ascension
Unknown
Apparent Declination
Unknown
Sunlit
N/A
Visualization observer readout
Local Sidereal Time
02:10:57
Azimuth
Unknown
Elevation
Unknown
Doppler factor
Unknown
Orbital elements
Apogee altitude
574.199 km
Perigee altitude
570.454 km
Semi-major axis
6,950.464 km
Eccentricity
0.00027
Inclination
97.7084°
RAAN
155.5938°
Arg. of periapsis
103.0184°
True anomaly
257.10381°
Mean anomaly
257.1339°
Eccentric anomaly
257.11885°
Mean motion
3.74561 °/min
Orbital period
96.11 mins
BSTAR
0.00037327
Loading maneuver chart data...
Computing Atmospheric mass density...
Loading historical data...
Loading historical data...
Loading historical data...
Loading historical data...
Loading historical data...
Loading historical data...
Loading historical data...

Documentation

Showing up to 5 results
|